Hourly Data Report for June 02, 2003

All times are specified in Local Standard Time (LST). Add 1 hour to adjust for Daylight Saving Time where and when it is observed.

TORONTO CITY
ONTARIO

43°40'00.000" N
79°24'00.000" W
112.50 m
6158355
71508
XTO

Download Data

Hourly Data (June 2003)
Hourly Data Report for June 2, 2003
TIME Temp Definition
°C
Dew Point Definition
°C
Rel Hum Definition
%
Wind Dir Definition
10's deg

Wind Spd Definition
km/h
Visibility Definition
km
Stn Press Definition
kPa
Hmdx Definition


Wind Chill Definition


Weather Definition


00:00 11.9 2.6 53 LegendMM LegendMM LegendMM 99.93     LegendNANA
01:00 11.4 2.7 55 LegendMM LegendMM LegendMM 99.93     LegendNANA
02:00 11.4 2.4 54 LegendMM LegendMM LegendMM 99.89     LegendNANA
03:00 10.9 2.5 56 LegendMM LegendMM LegendMM 99.91     LegendNANA
04:00 10.4 2.5 58 LegendMM LegendMM LegendMM 99.91     LegendNANA
05:00 11.0 2.6 56 LegendMM LegendMM LegendMM 99.93     LegendNANA
06:00 12.1 2.8 53 LegendMM LegendMM LegendMM 99.96     LegendNANA
07:00 13.3 3.7 52 LegendMM LegendMM LegendMM 99.98     LegendNANA
08:00 15.4 5.3 51 LegendMM LegendMM LegendMM 100.01     LegendNANA
09:00 17.4 5.7 46 LegendMM LegendMM LegendMM 100.02     LegendNANA
10:00 19.2 6.0 42 LegendMM LegendMM LegendMM 100.00     LegendNANA
11:00 20.4 6.7 41 LegendMM LegendMM LegendMM 100.00     LegendNANA
12:00 20.0 8.4 47 LegendMM LegendMM LegendMM 99.95     LegendNANA
13:00 21.8 5.7 35 LegendMM LegendMM LegendMM 99.92     LegendNANA
14:00 21.5 7.4 40 LegendMM LegendMM LegendMM 99.92     LegendNANA
15:00 21.9 8.1 41 LegendMM LegendMM LegendMM 99.89     LegendNANA
16:00 21.6 8.5 43 LegendMM LegendMM LegendMM 99.86     LegendNANA
17:00 20.3 6.6 41 LegendMM LegendMM LegendMM 99.89     LegendNANA
18:00 19.2 6.0 42 LegendMM LegendMM LegendMM 99.96     LegendNANA
19:00 17.2 3.1 39 LegendMM LegendMM LegendMM 100.05     LegendNANA
20:00 15.4 -1.3 32 LegendMM LegendMM LegendMM 100.08     LegendNANA
21:00 14.3 -1.8 33 LegendMM LegendMM LegendMM 100.13     LegendNANA
22:00 13.5 -1.7 35 LegendMM LegendMM LegendMM 100.15     LegendNANA
23:00 11.7 -1.2 41 LegendMM LegendMM LegendMM 100.15     LegendNANA

Notes on Data Quality.

Legend

  • E = Estimated
  • M = Missing
  • NA = Not Available
Date modified: